EW0641 Weather Reports


Display with metric or nautical units.
time (UTC)temp
F
wind
direction
speed
MPH
gust
MPH
rain 1hr
in
rain 24hr
in
rain mn
in
humidity
%
barometer
mb
20260503044505 41 360 0.0 0.0 0.00 0.01 0.00 68 1016.0
20260503043006 41 360 0.0 0.0 0.00 0.01 0.00 68 1015.9
20260503041502 41 360 0.0 0.0 0.00 0.01 0.00 67 1016.0
20260503040111 41 360 0.0 0.0 0.00 0.01 0.00 67 1016.1
20260503034600 41 360 0.0 0.0 0.00 0.01 0.01 67 1016.1
20260503033110 41 360 0.0 0.0 0.00 0.01 0.01 66 1016.3
20260503031605 41 360 0.0 0.0 0.00 0.01 0.01 65 1016.3
20260503030058 41 360 0.0 0.0 0.00 0.01 0.01 65 1016.4
20260503024600 41 360 0.0 0.0 0.00 0.01 0.01 66 1016.5
20260503023104 41 360 0.0 0.0 0.00 0.01 0.01 64 1016.5
20260503021606 42 360 0.0 0.0 0.00 0.01 0.01 63 1016.5
20260503020108 42 360 0.0 0.0 0.00 0.01 0.01 61 1016.5
20260503014556 43 360 0.0 0.0 0.00 0.01 0.01 58 1016.5
20260503013106 45 360 0.0 0.0 0.00 0.01 0.01 56 1016.3
20260503011604 45 360 0.0 0.0 0.00 0.01 0.01 53 1016.3
20260503010058 46 360 0.0 0.0 0.00 0.01 0.01 52 1016.3
20260503004554 47 360 0.0 0.0 0.00 0.01 0.01 51 1016.2
20260503003101 47 360 0.0 0.0 0.00 0.01 0.01 51 1016.2
20260503001553 48 360 0.0 0.0 0.00 0.01 0.01 51 1016.2
20260503000108 48 360 0.0 0.0 0.00 0.01 0.01 51 1016.2
20260502234552 48 360 0.0 0.0 0.00 0.03 0.01 49 1016.1
20260502233052 48 360 0.0 0.0 0.00 0.03 0.01 48 1016.2
20260502231551 48 342 0.0 0.0 0.00 0.03 0.01 48 1016.3
20260502230051 48 355 0.0 0.0 0.00 0.03 0.01 48 1016.2
20260502224549 48 342 0.0 0.0 0.00 0.03 0.01 49 1016.3
20260502223050 48 343 0.0 0.0 0.00 0.03 0.01 47 1016.3
20260502221548 49 350 0.0 0.0 0.00 0.03 0.01 48 1016.3
20260502220048 48 11 0.0 0.0 0.00 0.03 0.01 48 1016.3
20260502214547 48 9 0.0 0.0 0.00 0.03 0.01 49 1016.3
20260502213046 49 336 0.0 0.0 0.00 0.03 0.01 50 1016.4
20260502211552 48 347 0.0 0.0 0.00 0.03 0.01 48 1016.3
20260502210044 48 321 0.0 0.0 0.00 0.03 0.01 47 1016.4
20260502204543 48 350 0.0 0.0 0.00 0.03 0.01 47 1016.4
20260502203043 48 337 0.0 0.0 0.00 0.03 0.01 47 1016.5
20260502201540 48 29 0.0 0.0 0.00 0.03 0.01 48 1016.6
20260502200044 48 355 0.0 0.0 0.00 0.03 0.01 48 1016.8
20260502194538 48 315 0.0 0.0 0.00 0.03 0.01 47 1017.0
20260502193037 48 17 0.0 0.0 0.00 0.03 0.01 50 1017.2
20260502191538 48 355 0.0 0.0 0.00 0.03 0.01 47 1017.2
20260502190036 47 5 0.0 0.0 0.00 0.03 0.01 47 1017.4
20260502184537 48 360 0.0 0.0 0.00 0.03 0.01 50 1017.5
20260502183034 47 12 0.0 0.0 0.00 0.03 0.01 50 1017.5
20260502181532 47 63 0.0 0.0 0.00 0.03 0.01 48 1017.6
20260502163026 45 15 0.0 0.0 0.00 0.03 0.01 54 1018.0
20260502161523 46 11 0.0 0.0 0.00 0.03 0.01 56 1018.1
20260502151522 44 10 0.0 0.0 0.00 0.03 0.01 64 1018.0
20260502123004 42 37 0.0 0.0 0.00 0.05 0.01 75 1018.1
20260502121559 40 47 0.0 0.0 0.00 0.05 0.01 76 1018.1
20260502114601 39 57 0.0 0.0 0.00 0.05 0.01 78 1017.9
20260502113057 39 57 0.0 0.0 0.00 0.05 0.01 78 1017.8
20260502111556 38 57 0.0 0.0 0.00 0.05 0.01 79 1017.7
20260502110054 38 57 0.0 0.0 0.00 0.05 0.01 80 1017.6
20260502104553 38 57 0.0 0.0 0.00 0.05 0.01 81 1017.5
20260502103053 38 57 0.0 0.0 0.00 0.05 0.01 82 1017.5
20260502101552 38 57 0.0 0.0 0.00 0.05 0.01 82 1017.5
20260502070042 39 88 0.0 0.0 0.01 0.05 0.01 80 1017.0
20260502064541 39 88 0.0 0.0 0.01 0.05 0.01 80 1017.0
20260502063055 39 94 0.0 0.0 0.01 0.05 0.01 81 1017.0
20260502061544 39 94 0.0 0.0 0.01 0.05 0.01 80 1017.2
20260502060038 39 94 0.0 0.0 0.00 0.04 0.00 79 1017.4
20260502054536 39 94 0.0 0.0 0.00 0.04 0.00 78 1017.5
20260502053040 40 129 0.0 0.0 0.00 0.04 0.00 75 1017.5
20260502051535 40 130 0.0 0.0 0.00 0.04 0.00 72 1017.5
20260502050031 40 115 0.0 0.0 0.00 0.04 0.00 71 1017.4